This demonstration page uses our WeatherBlox Daily Observations layout. Learn more.

Left ArrowRight Arrow

Hourly Observations for June 27, 2017

Temp ( °F °C ) Dew Point ( °F °C ) Humidity (%) Winds ( mph kmh ) Pressure ( in mb ) Visibility ( mi km ) Precip ( " mm )
12:15 am 00:15 Clear 73 23 50 10 44 44 ESE 7 11 29.88 1012 10 16 0.00 0.00
12:35 am 00:35 Clear 72 22 50 10 47 47 ESE 7 11 29.91 1013 10 16 0.00 0.00
12:55 am 00:55 Clear 72 22 50 10 47 47 Calm 29.91 1013 10 16 0.00 0.00
1:15 am 01:15 Clear 72 22 52 11 50 50 SE 6 9 29.91 1013 10 16 0.00 0.00
1:35 am 01:35 Clear 70 21 52 11 53 53 SE 7 11 29.91 1013 10 16 0.00 0.00
1:55 am 01:55 Clear 68 20 52 11 56 56 SE 7 11 29.91 1013 10 16 0.00 0.00
2:15 am 02:15 Clear 68 20 52 11 56 56 SE 6 9 29.91 1013 10 16 0.00 0.00
2:35 am 02:35 Clear 68 20 50 10 53 53 Calm 29.91 1013 10 16 0.00 0.00
2:55 am 02:55 Clear 66 19 52 11 60 60 Calm 29.91 1013 10 16 0.00 0.00
3:15 am 03:15 Clear 66 19 54 12 64 64 Calm 29.91 1013 10 16 0.00 0.00
3:35 am 03:35 Clear 66 19 54 12 64 64 Calm 29.91 1013 10 16 0.00 0.00
3:55 am 03:55 Clear 66 19 54 12 64 64 Calm 29.91 1013 10 16 0.00 0.00
4:15 am 04:15 Clear 66 19 54 12 64 64 Calm 29.91 1013 10 16 0.00 0.00
4:35 am 04:35 Clear 66 19 50 10 56 56 Calm 29.91 1013 10 16 0.00 0.00
4:55 am 04:55 Clear 64 18 50 10 60 60 Calm 29.91 1013 10 16 0.00 0.00
5:15 am 05:15 Clear 64 18 50 10 60 60 Calm 29.91 1013 10 16 0.00 0.00
5:35 am 05:35 Clear 64 18 50 10 60 60 Calm 29.91 1013 10 16 0.00 0.00
6:47 am 06:47 Mostly Sunny 63 17 54 12 73 73 NW 6 9 29.94 1014 40 64 0.00 0.00
7:57 am 07:57 Mostly Sunny 66 19 54 12 64 64 VRB 6 9 29.94 1014 40 64 0.00 0.00
8:47 am 08:47 Mostly Sunny 68 20 54 12 60 60 VRB 6 9 29.94 1014 40 64 0.00 0.00
9:15 am 09:15 Mostly Sunny 70 21 55 13 60 60 VRB 6 9 29.94 1014 40 64 0.00 0.00
9:47 am 09:47 Mostly Sunny 72 22 55 13 57 57 VRB 6 9 29.94 1014 25 40 0.00 0.00
10:47 am 10:47 Mostly Sunny 75 24 54 12 47 47 VRB 6 9 29.88 1012 40 64 0.00 0.00
11:47 am 11:47 Mostly Sunny 79 26 55 13 45 45 VRB 6 9 29.88 1012 40 64 0.00 0.00
12:47 pm 12:47 Mostly Sunny 81 27 55 13 42 42 VRB 6 9 29.88 1012 25 40 0.00 0.00
1:48 pm 13:48 Mostly Sunny 84 29 55 13 37 37 VRB 6 9 29.85 1011 40 64 0.00 0.00
2:50 pm 14:50 Mostly Sunny 86 30 50 10 29 29 SSE 7 11 29.83 1010 40 64 0.00 0.00
3:47 pm 15:47 Mostly Sunny 88 31 48 9 25 25 SE 9 15 29.80 1009 40 64 0.00 0.00
4:50 pm 16:50 Mostly Sunny 90 32 46 8 22 22 SSE 12 19 29.80 1009 25 40 0.00 0.00
4:55 pm 16:55 Sunny 90 32 46 8 22 22 S 12 19 29.80 1009 10 16 0.00 0.00
5:15 pm 17:15 Sunny 90 32 46 8 22 22 S 10 17 29.80 1009 10 16 0.00 0.00
5:35 pm 17:35 Sunny 90 32 45 7 21 21 S 13 20 29.77 1008 10 16 0.00 0.00
5:50 pm 17:50 Mostly Sunny 90 32 48 9 24 24 SE 6 9 29.77 1008 40 64 0.00 0.00
5:55 pm 17:55 Sunny 90 32 46 8 22 22 SSE 13 20 29.77 1008 10 16 0.00 0.00
6:15 pm 18:15 Sunny 90 32 48 9 24 24 S 13 20 29.77 1008 10 16 0.00 0.00
6:35 pm 18:35 Sunny 90 32 48 9 24 24 S 12 19 29.77 1008 10 16 0.00 0.00
6:55 pm 18:55 Sunny 90 32 48 9 24 24 S 12 19 29.77 1008 10 16 0.00 0.00
7:15 pm 19:15 Sunny 88 31 50 10 27 27 S 9 15 29.77 1008 10 16 0.00 0.00
7:35 pm 19:35 Sunny 86 30 50 10 29 29 S 9 15 29.77 1008 10 16 0.00 0.00
7:55 pm 19:55 Sunny 86 30 50 10 29 29 S 8 13 29.77 1008 10 16 0.00 0.00
8:15 pm 20:15 Sunny 84 29 50 10 31 31 SSE 8 13 29.77 1008 10 16 0.00 0.00
8:35 pm 20:35 Sunny 84 29 50 10 31 31 SE 8 13 29.77 1008 10 16 0.00 0.00
8:55 pm 20:55 Clear 82 28 48 9 30 30 SE 7 11 29.77 1008 10 16 0.00 0.00
9:15 pm 21:15 Clear 82 28 50 10 32 32 ESE 6 9 29.77 1008 10 16 0.00 0.00
9:35 pm 21:35 Clear 82 28 50 10 32 32 ESE 7 11 29.77 1008 10 16 0.00 0.00
9:55 pm 21:55 Clear 82 28 48 9 30 30 SE 7 11 29.80 1009 10 16 0.00 0.00
10:35 pm 22:35 Clear 81 27 50 10 34 34 ESE 9 15 29.80 1009 10 16 0.00 0.00
10:55 pm 22:55 Clear 79 26 50 10 37 37 SE 8 13 29.80 1009 10 16 0.00 0.00
11:15 pm 23:15 Clear 77 25 54 12 44 44 SSE 12 19 29.80 1009 10 16 0.00 0.00
11:35 pm 23:35 Clear 77 25 54 12 44 44 ESE 3 6 29.80 1009 10 16 0.00 0.00
11:55 pm 23:55 Clear 75 24 54 12 47 47 ESE 7 11 29.80 1009 10 16 0.00 0.00

Powered by Vaisala Xweather